This demonstration page uses our WeatherBlox Daily Observations layout. Learn more.

Left ArrowRight Arrow

30.00354, -91.81873

Hourly Observations for July 12, 2022

Temp ( °F °C ) Dew Point ( °F °C ) Humidity (%) Winds ( mph kmh ) Pressure ( in mb ) Visibility ( mi km ) Precip ( " mm )
12:53 am 00:53 Clear 79 26.1 76 24.4 90 90 Calm 29.85 1011 10 16 0.00 0.00
1:53 am 01:53 Clear 78 25.6 74 23.3 87 87 Calm 29.85 1011 10 16 0.00 0.00
2:53 am 02:53 Clear 76 24.4 74 23.3 94 94 Calm 29.84 1011 10 16 0.00 0.00
3:53 am 03:53 Clear 75 23.9 73 22.8 94 94 Calm 29.85 1011 9 14 0.00 0.00
4:53 am 04:53 Clear 76 24.4 73 22.8 91 91 ESE 3 6 29.85 1011 10 16 0.00 0.00
5:53 am 05:53 Mostly Clear 76 24.4 73 22.8 91 91 Calm 29.86 1011 10 16 0.00 0.00
6:53 am 06:53 Mostly Sunny 77 25 74 23.3 90 90 WNW 3 6 29.86 1011 9 14 0.00 0.00
7:53 am 07:53 Mostly Sunny 82 27.8 76 24.4 82 82 Calm 29.88 1012 10 16 0.00 0.00
8:53 am 08:53 Sunny 85 29.4 78 25.6 80 80 NW 5 7 29.89 1012 10 16 0.00 0.00
9:53 am 09:53 Mostly Cloudy 87 30.6 78 25.6 75 75 NW 10 17 29.89 1012 10 16 0.00 0.00
10:00 am 10:00 Partly Cloudy 88 31.1 78 25.6 73 73 NNW 10 17 29.90 1012 10 16 0.00 0.00
10:53 am 10:53 Mostly Cloudy 90 32.2 78 25.6 68 68 NNW 7 11 29.89 1012 10 16 0.00 0.00
11:53 am 11:53 Partly Cloudy 93 33.9 77 25 60 60 VRB 7 11 29.89 1012 10 16 0.00 0.00
12:53 pm 12:53 Partly Cloudy 93 33.9 76 24.4 58 58 N 8 13 29.89 1012 10 16 0.00 0.00
1:53 pm 13:53 Sunny 95 35 74 23.3 51 51 NNE 6 9 29.85 1011 10 16 0.00 0.00
2:53 pm 14:53 Sunny 95 35 73 22.8 49 49 NE 7 11 29.85 1011 10 16 0.00 0.00
3:53 pm 15:53 Mostly Cloudy 86 30 73 22.8 65 65 SSE 18 30 29.88 1012 10 16 0.00 0.00
4:53 pm 16:53 Sunny 83 28.3 73 22.8 72 72 S 12 19 29.87 1011 10 16 0.00 0.00
5:53 pm 17:53 Partly Cloudy 82 27.8 74 23.3 77 77 SSW 9 15 29.88 1012 10 16 0.00 0.00
6:53 pm 18:53 Mostly Sunny 81 27.2 76 24.4 85 85 S 5 7 29.87 1012 10 16 0.00 0.00
7:53 pm 19:53 Sunny 81 27.2 76 24.4 85 85 SSW 3 6 29.88 1012 10 16 0.00 0.00
8:53 pm 20:53 Clear 80 26.7 76 24.4 87 87 W 3 6 29.89 1012 10 16 0.00 0.00
9:53 pm 21:53 Clear 79 26.1 75 23.9 88 88 Calm 29.90 1012 10 16 0.00 0.00
10:53 pm 22:53 Clear 79 26.1 75 23.9 88 88 Calm 29.93 1013 10 16 0.00 0.00
11:53 pm 23:53 Clear 78 25.6 75 23.9 90 90 ESE 3 6 29.94 1014 10 16 0.00 0.00

Powered by AerisWeather